Starlink 35362

operational
NORAD ID: 65888 Int'l Des: 2025-224 Owner: SPXS Country: US Constellation: starlink
LEOCIRCULAR

About Starlink 35362

Description loading...

Live Position

Loading 3D Globe...

Upcoming Passes

Altitude History

Altitude vs Time

uPlot chart will show altitude changes over time

Two-Line Element Set

1 65888U 25224G 25318.83334491 -.02014062 00000-0 -62793-1 0 9999
2 65888 53.1596 185.0431 0001054 78.7779 24.0615 15.36455572 6044
Epoch: Nov 14, 2025 • Age: 7 hours

Current Status

Altitude 465.2 km
Velocity 7.63 km/s
Sub-Earth Point -17.38°S, 77.37°W
Launch Date Oct 7, 2025
Age 0.1 years
Type internet

Technical Details

Classification Payload
Mass 575.00 kg
Dry Mass 530.00 kg
Total Mass 575.00 kg
Length 0.30 m
Diameter 4.10 m
Span 29.00 m
Shape Box + pan
Manufacturer SPXS
Bus Type Starlink V2MO
Phase Status In Orbit
Owner/State SPXS/US

Large Constellations

Loading constellations...